When you browse on this site, cookies collect data to enhance your experience and personalize the content and advertising you see.
Visit our Privacy Policy to learn more. By continuing to use the site, you agree to this use of cookies and data.
  • Em Portugal
  • Lista de países
  • Para 7 dias
  • Temperatura da água
  • Mapas de satélite
  • Mapa do tempo
  • Widgets de tempo
  • user-avatar
    Iniciar Sessão

    Previsão horária em Bragino

    Hoje, 21 Fevereiro, Quinta-feira

    Tempo Temperatura Precipitação Vento Pressão Humidade
    00:00 -8°C° 0.1 mm 8 m/s 749 mmHg 72%
    01:00 -8°C° 0.1 mm 8 m/s 750 mmHg 71%
    02:00 -8°C° 0 mm 7 m/s 751 mmHg 73%
    03:00 -9°C° 0.1 mm 7 m/s 751 mmHg 73%
    04:00 -9°C° 0.1 mm 7 m/s 752 mmHg 72%
    05:00 -11°C° 0.1 mm 8 m/s 753 mmHg 71%
    06:00 -11°C° 0 mm 7 m/s 754 mmHg 71%
    07:00 -11°C° 0 mm 7 m/s 755 mmHg 70%
    08:00 -10°C° 0 mm 6 m/s 756 mmHg 71%
    09:00 -10°C° 0 mm 6 m/s 757 mmHg 68%
    10:00 -10°C° 0 mm 6 m/s 757 mmHg 66%
    11:00 -9°C° 0 mm 6 m/s 758 mmHg 64%
    12:00 -9°C° 0 mm 6 m/s 759 mmHg 62%
    13:00 -9°C° 0 mm 6 m/s 759 mmHg 61%
    14:00 -9°C° 0 mm 6 m/s 760 mmHg 59%
    15:00 -8°C° 0 mm 5 m/s 760 mmHg 62%
    16:00 -10°C° 0 mm 5 m/s 761 mmHg 65%
    17:00 -9°C° 0 mm 4 m/s 762 mmHg 67%
    18:00 -10°C° 0 mm 4 m/s 762 mmHg 69%
    19:00 -10°C° 0 mm 4 m/s 763 mmHg 71%
    20:00 -10°C° 0 mm 4 m/s 764 mmHg 73%
    21:00 -11°C° 0 mm 4 m/s 764 mmHg 74%
    22:00 -11°C° 0 mm 4 m/s 765 mmHg 74%
    23:00 -11°C° 0 mm 4 m/s 765 mmHg 75%

    Amanhã, 22 Fevereiro, Sexta-feira

    Tempo Temperatura Precipitação Vento Pressão Humidade
    00:00 -11°C° 0 mm 4 m/s 766 mmHg 76%
    01:00 -11°C° 0 mm 4 m/s 767 mmHg 76%
    02:00 -11°C° 0 mm 4 m/s 767 mmHg 77%
    03:00 -11°C° 0 mm 4 m/s 768 mmHg 77%
    04:00 -11°C° 0 mm 4 m/s 768 mmHg 78%
    05:00 -11°C° 0 mm 4 m/s 769 mmHg 79%
    06:00 -11°C° 0 mm 4 m/s 769 mmHg 79%
    07:00 -11°C° 0 mm 4 m/s 770 mmHg 79%
    08:00 -11°C° 0 mm 4 m/s 771 mmHg 79%
    09:00 -10°C° 0 mm 4 m/s 771 mmHg 74%
    10:00 -9°C° 0 mm 4 m/s 772 mmHg 70%
    11:00 -8°C° 0 mm 5 m/s 772 mmHg 65%
    12:00 -8°C° 0 mm 5 m/s 773 mmHg 62%
    13:00 -7°C° 0 mm 5 m/s 773 mmHg 59%
    14:00 -7°C° 0 mm 4 m/s 773 mmHg 56%
    15:00 -8°C° 0 mm 4 m/s 773 mmHg 60%
    16:00 -8°C° 0 mm 4 m/s 774 mmHg 64%
    17:00 -9°C° 0 mm 4 m/s 774 mmHg 68%
    18:00 -9°C° 0 mm 3 m/s 774 mmHg 72%
    19:00 -9°C° 0 mm 3 m/s 775 mmHg 76%
    20:00 -9°C° 0 mm 2 m/s 775 mmHg 80%
    21:00 -9°C° 0 mm 2 m/s 775 mmHg 80%
    22:00 -9°C° 0 mm 2 m/s 775 mmHg 80%
    23:00 -10°C° 0 mm 2 m/s 775 mmHg 80%

    Depois de amanhã, 23 Fevereiro, Sábado

    Tempo Temperatura Precipitação Vento Pressão Humidade
    00:00 -10°C° 0 mm 2 m/s 775 mmHg 79%
    01:00 -10°C° 0 mm 2 m/s 775 mmHg 78%
    02:00 -10°C° 0 mm 2 m/s 775 mmHg 77%
    03:00 -9°C° 0 mm 2 m/s 774 mmHg 76%
    04:00 -10°C° 0 mm 3 m/s 773 mmHg 75%
    05:00 -10°C° 0 mm 3 m/s 773 mmHg 74%
    06:00 -10°C° 0.1 mm 4 m/s 772 mmHg 76%
    07:00 -9°C° 0.1 mm 4 m/s 772 mmHg 77%
    08:00 -8°C° 0.1 mm 5 m/s 772 mmHg 79%
    09:00 -7°C° 0.4 mm 5 m/s 771 mmHg 82%
    10:00 -7°C° 0.4 mm 5 m/s 770 mmHg 85%
    11:00 -6°C° 0.4 mm 6 m/s 770 mmHg 88%
    12:00 -5°C° 0.3 mm 5 m/s 769 mmHg 89%
    13:00 -4°C° 0.3 mm 5 m/s 769 mmHg 89%
    14:00 -4°C° 0.3 mm 5 m/s 768 mmHg 90%
    15:00 -2°C° 0.1 mm 5 m/s 768 mmHg 90%
    16:00 -2°C° 0.1 mm 5 m/s 767 mmHg 90%
    17:00 -1°C° 0.1 mm 5 m/s 767 mmHg 90%
    18:00 -1°C° 0 mm 4 m/s 767 mmHg 91%
    19:00 -1°C° 0 mm 4 m/s 766 mmHg 92%
    20:00 -1°C° 0 mm 4 m/s 766 mmHg 92%
    21:00 -1°C° 0 mm 4 m/s 766 mmHg 93%
    22:00 -1°C° 0 mm 4 m/s 766 mmHg 93%
    23:00 -1°C° 0 mm 4 m/s 766 mmHg 94%

    24 Fevereiro, Domingo

    Tempo Temperatura Precipitação Vento Pressão Humidade
    00:00 -1°C° 0 mm 4 m/s 766 mmHg 94%
    01:00 -1°C° 0 mm 4 m/s 766 mmHg 95%
    02:00 -1°C° 0 mm 4 m/s 766 mmHg 96%
    03:00 0°C° 0 mm 3 m/s 766 mmHg 96%
    04:00 0°C° 0 mm 3 m/s 766 mmHg 96%
    05:00 0°C° 0 mm 3 m/s 766 mmHg 96%
    06:00 0°C° 0 mm 3 m/s 766 mmHg 96%
    07:00 0°C° 0 mm 3 m/s 766 mmHg 96%
    08:00 0°C° 0 mm 3 m/s 766 mmHg 96%
    09:00 0°C° 0 mm 3 m/s 766 mmHg 96%
    10:00 0°C° 0 mm 4 m/s 765 mmHg 95%
    11:00 0°C° 0 mm 4 m/s 765 mmHg 94%
    12:00 0°C° 0 mm 4 m/s 765 mmHg 94%
    13:00 0°C° 0 mm 4 m/s 765 mmHg 94%
    14:00 +2°C° 0 mm 3 m/s 765 mmHg 94%
    15:00 +1°C° 0 mm 4 m/s 764 mmHg 94%
    16:00 +1°C° 0 mm 4 m/s 764 mmHg 94%
    17:00 0°C° 0 mm 4 m/s 764 mmHg 94%
    18:00 0°C° 0 mm 4 m/s 764 mmHg 95%
    19:00 0°C° 0 mm 4 m/s 763 mmHg 95%
    20:00 0°C° 0 mm 4 m/s 763 mmHg 95%
    21:00 +1°C° 0 mm 3 m/s 763 mmHg 96%
    22:00 +1°C° 0 mm 3 m/s 763 mmHg 96%
    23:00 +1°C° 0 mm 3 m/s 763 mmHg 96%

    25 Fevereiro, Segunda-feira

    Tempo Temperatura Precipitação Vento Pressão Humidade
    00:00 +1°C° 0 mm 3 m/s 763 mmHg 95%
    01:00 0°C° 0 mm 4 m/s 763 mmHg 94%
    02:00 0°C° 0 mm 4 m/s 763 mmHg 93%
    03:00 -1°C° 0 mm 4 m/s 763 mmHg 92%
    04:00 -1°C° 0 mm 4 m/s 763 mmHg 91%
    05:00 -2°C° 0 mm 4 m/s 764 mmHg 89%
    06:00 -2°C° 0 mm 4 m/s 764 mmHg 88%
    07:00 -2°C° 0 mm 4 m/s 764 mmHg 88%
    08:00 -2°C° 0 mm 4 m/s 764 mmHg 87%
    09:00 -1°C° 0 mm 5 m/s 763 mmHg 84%
    10:00 -1°C° 0 mm 5 m/s 763 mmHg 81%
    11:00 0°C° 0 mm 5 m/s 763 mmHg 79%
    12:00 -1°C° 0 mm 6 m/s 763 mmHg 77%
    13:00 +1°C° 0 mm 6 m/s 763 mmHg 76%
    14:00 +1°C° 0 mm 6 m/s 762 mmHg 74%
    15:00 +1°C° 0 mm 6 m/s 762 mmHg 76%
    16:00 0°C° 0 mm 5 m/s 762 mmHg 77%
    17:00 0°C° 0 mm 5 m/s 762 mmHg 79%
    18:00 -1°C° 0 mm 5 m/s 762 mmHg 81%
    19:00 -1°C° 0 mm 4 m/s 762 mmHg 83%
    20:00 -2°C° 0 mm 4 m/s 762 mmHg 85%
    21:00 -2°C° 0 mm 4 m/s 761 mmHg 87%
    22:00 -2°C° 0 mm 4 m/s 761 mmHg 88%
    23:00 -2°C° 0 mm 4 m/s 761 mmHg 90%

    26 Fevereiro, Terça-feira

    Tempo Temperatura Precipitação Vento Pressão Humidade
    00:00 -2°C° 0 mm 4 m/s 760 mmHg 91%
    01:00 -2°C° 0 mm 3 m/s 760 mmHg 91%
    02:00 -2°C° 0 mm 3 m/s 759 mmHg 92%
    03:00 -2°C° 0 mm 3 m/s 758 mmHg 93%
    04:00 -2°C° 0 mm 3 m/s 758 mmHg 93%
    05:00 -2°C° 0 mm 3 m/s 757 mmHg 93%
    06:00 -2°C° 0.1 mm 3 m/s 756 mmHg 93%
    07:00 -1°C° 0.1 mm 3 m/s 755 mmHg 92%
    08:00 -1°C° 0.1 mm 3 m/s 754 mmHg 92%
    09:00 -2°C° 0.3 mm 4 m/s 753 mmHg 90%
    10:00 -1°C° 0.3 mm 4 m/s 752 mmHg 89%
    11:00 0°C° 0.3 mm 5 m/s 751 mmHg 87%
    12:00 0°C° 0.8 mm 5 m/s 751 mmHg 86%
    13:00 +1°C° 0.8 mm 6 m/s 751 mmHg 86%
    14:00 +1°C° 0.8 mm 6 m/s 750 mmHg 85%
    15:00 0°C° 0.2 mm 7 m/s 751 mmHg 86%
    16:00 -1°C° 0.2 mm 7 m/s 752 mmHg 87%
    17:00 -2°C° 0.2 mm 7 m/s 753 mmHg 88%
    18:00 -2°C° 0 mm 6 m/s 755 mmHg 87%
    19:00 -3°C° 0 mm 6 m/s 756 mmHg 85%
    20:00 -2°C° 0 mm 5 m/s 757 mmHg 84%
    21:00 -2°C° 0 mm 4 m/s 758 mmHg 85%
    22:00 -2°C° 0 mm 3 m/s 758 mmHg 86%
    23:00 -2°C° 0 mm 3 m/s 759 mmHg 86%
    Mostrar mais